| time (UTC) | temp F | wind direction | speed MPH | gust MPH | rain 1hr in | rain 24hr in | rain mn in | humidity % | barometer mb |
| 20260507033002 | 79 | 180 | 7.0 | 12.0 | 0.00 | 0.00 | 0.00 | 83 | 1013.4 |
| 20260507032844 | 79 | 180 | 5.0 | 9.0 | 0.00 | 0.00 | 0.00 | 82 | 1013.1 |
| 20260507030830 | 79 | 180 | 6.0 | 11.0 | 0.00 | 0.00 | 0.00 | 82 | 1013.1 |
| 20260507025745 | 79 | 180 | 6.0 | 13.0 | 0.00 | 0.00 | 0.00 | 82 | 1013.1 |
| 20260507024658 | 79 | 180 | 5.0 | 9.0 | 0.00 | 0.00 | 0.00 | 81 | 1013.1 |
| 20260507023616 | 79 | 135 | 5.0 | 9.0 | 0.00 | 0.00 | 0.00 | 81 | 1013.2 |
| 20260507022527 | 79 | 180 | 6.0 | 9.0 | 0.00 | 0.00 | 0.00 | 81 | 1013.2 |
| 20260507021440 | 79 | 158 | 6.0 | 15.0 | 0.00 | 0.00 | 0.00 | 81 | 1012.2 |
| 20260507020354 | 79 | 158 | 6.0 | 9.0 | 0.00 | 0.00 | 0.00 | 81 | 1012.2 |
| 20260507015308 | 79 | 180 | 7.0 | 17.0 | 0.00 | 0.00 | 0.00 | 81 | 1012.5 |
| 20260507014221 | 79 | 135 | 6.0 | 9.0 | 0.00 | 0.00 | 0.00 | 81 | 1012.5 |
| 20260507013141 | 79 | 158 | 6.0 | 9.0 | 0.00 | 0.00 | 0.00 | 81 | 1012.0 |
| 20260507012051 | 79 | 158 | 6.0 | 12.0 | 0.00 | 0.00 | 0.00 | 81 | 1011.2 |
| 20260507011929 | 79 | 113 | 5.0 | 11.0 | 0.00 | 0.00 | 0.00 | 81 | 1011.2 |
| 20260507005919 | 79 | 180 | 6.0 | 16.0 | 0.00 | 0.00 | 0.00 | 81 | 1012.1 |
| 20260507004831 | 79 | 135 | 7.0 | 11.0 | 0.00 | 0.00 | 0.00 | 81 | 1012.1 |
| 20260507004221 | 79 | 180 | 8.0 | 11.0 | 0.00 | 0.00 | 0.00 | 81 | 1012.1 |
| 20260507002706 | 80 | 158 | 8.0 | 10.0 | 0.00 | 0.00 | 0.00 | 80 | 1012.1 |
| 20260507001622 | 80 | 158 | 7.0 | 11.0 | 0.00 | 0.00 | 0.00 | 80 | 1012.0 |
| 20260507000527 | 80 | 158 | 7.0 | 12.0 | 0.00 | 0.00 | 0.00 | 80 | 1012.0 |
| 20260506235438 | 80 | 113 | 9.0 | 12.0 | 0.00 | 0.00 | 0.00 | 80 | 1011.6 |
| 20260506234353 | 80 | 158 | 8.0 | 10.0 | 0.00 | 0.00 | 0.00 | 80 | 1011.6 |
| 20260506233308 | 80 | 135 | 8.0 | 12.0 | 0.00 | 0.00 | 0.00 | 80 | 1011.3 |
| 20260506232228 | 81 | 135 | 8.0 | 14.0 | 0.00 | 0.00 | 0.00 | 79 | 1011.3 |
| 20260506231136 | 81 | 135 | 8.0 | 13.0 | 0.00 | 0.00 | 0.00 | 79 | 1011.2 |
| 20260506230051 | 81 | 135 | 9.0 | 12.0 | 0.00 | 0.00 | 0.00 | 79 | 1011.4 |
| 20260506225448 | 81 | 135 | 8.0 | 19.0 | 0.00 | 0.00 | 0.00 | 79 | 1011.4 |
| 20260506223922 | 81 | 135 | 8.0 | 13.0 | 0.00 | 0.00 | 0.00 | 78 | 1011.9 |
| 20260506222836 | 81 | 135 | 9.0 | 13.0 | 0.00 | 0.00 | 0.00 | 78 | 1011.9 |
| 20260506221755 | 82 | 135 | 8.0 | 16.0 | 0.00 | 0.00 | 0.00 | 77 | 1012.1 |
| 20260506220704 | 82 | 135 | 9.0 | 15.0 | 0.00 | 0.00 | 0.00 | 77 | 1012.1 |
| 20260506215618 | 82 | 225 | 9.0 | 22.0 | 0.00 | 0.00 | 0.00 | 77 | 1012.4 |
| 20260506214532 | 83 | 135 | 8.0 | 14.0 | 0.00 | 0.00 | 0.00 | 76 | 1012.4 |
| 20260506213445 | 82 | 158 | 8.0 | 12.0 | 0.00 | 0.00 | 0.00 | 76 | 1012.5 |
| 20260506212400 | 83 | 158 | 9.0 | 13.0 | 0.00 | 0.00 | 0.00 | 76 | 1012.5 |
| 20260506211323 | 83 | 135 | 8.0 | 10.0 | 0.00 | 0.00 | 0.00 | 75 | 1012.7 |
| 20260506210231 | 83 | 135 | 9.0 | 13.0 | 0.00 | 0.00 | 0.00 | 74 | 1012.7 |
| 20260506205143 | 83 | 180 | 8.0 | 13.0 | 0.00 | 0.00 | 0.00 | 75 | 1013.0 |
| 20260506204059 | 83 | 113 | 7.0 | 14.0 | 0.00 | 0.00 | 0.00 | 75 | 1012.9 |
| 20260506203022 | 84 | 180 | 9.0 | 9.0 | 0.00 | 0.00 | 0.00 | 74 | 1012.9 |
| 20260506201928 | 84 | 135 | 9.0 | 15.0 | 0.00 | 0.00 | 0.00 | 73 | 1013.1 |
| 20260506201806 | 84 | 180 | 9.0 | 13.0 | 0.00 | 0.00 | 0.00 | 73 | 1013.1 |
| 20260506195756 | 84 | 180 | 9.0 | 17.0 | 0.00 | 0.00 | 0.00 | 74 | 1014.0 |
| 20260506194709 | 84 | 135 | 9.0 | 15.0 | 0.00 | 0.00 | 0.00 | 74 | 1014.0 |
| 20260506193625 | 84 | 68 | 8.0 | 13.0 | 0.00 | 0.00 | 0.00 | 73 | 1013.8 |
| 20260506192538 | 84 | 135 | 9.0 | 17.0 | 0.00 | 0.00 | 0.00 | 74 | 1013.8 |
| 20260506191452 | 84 | 158 | 8.0 | 14.0 | 0.00 | 0.00 | 0.00 | 74 | 1014.1 |
| 20260506191332 | 83 | 180 | 8.0 | 13.0 | 0.00 | 0.00 | 0.00 | 74 | 1014.1 |
| 20260506185756 | 84 | 158 | 8.0 | 13.0 | 0.00 | 0.00 | 0.00 | 74 | 1014.3 |
| 20260506184236 | 84 | 135 | 8.0 | 22.0 | 0.00 | 0.00 | 0.00 | 75 | 1014.3 |
| 20260506183626 | 83 | 158 | 7.0 | 10.0 | 0.00 | 0.00 | 0.00 | 75 | 1014.4 |
| 20260506182545 | 83 | 158 | 7.0 | 11.0 | 0.00 | 0.00 | 0.00 | 75 | 1014.8 |
| 20260506181026 | 82 | 135 | 8.0 | 13.0 | 0.00 | 0.00 | 0.00 | 76 | 1014.8 |
| 20260506175935 | 82 | 135 | 7.0 | 11.0 | 0.00 | 0.00 | 0.00 | 76 | 1015.2 |
| 20260506174846 | 82 | 135 | 7.0 | 12.0 | 0.00 | 0.00 | 0.00 | 76 | 1015.2 |
| 20260506173758 | 82 | 158 | 8.0 | 12.0 | 0.00 | 0.00 | 0.00 | 75 | 1015.1 |
| 20260506172711 | 82 | 180 | 7.0 | 12.0 | 0.00 | 0.00 | 0.00 | 75 | 1015.1 |
| 20260506171627 | 83 | 158 | 8.0 | 19.0 | 0.00 | 0.00 | 0.00 | 75 | 1015.0 |
| 20260506170541 | 82 | 135 | 8.0 | 11.0 | 0.00 | 0.00 | 0.00 | 75 | 1015.0 |
| 20260506165459 | 82 | 135 | 8.0 | 13.0 | 0.00 | 0.00 | 0.00 | 76 | 1014.9 |
| 20260506164407 | 82 | 158 | 9.0 | 15.0 | 0.00 | 0.00 | 0.00 | 76 | 1014.9 |
| 20260506163324 | 82 | 180 | 9.0 | 14.0 | 0.00 | 0.00 | 0.00 | 77 | 1014.6 |
| 20260506162238 | 82 | 113 | 7.0 | 11.0 | 0.00 | 0.00 | 0.00 | 79 | 1014.6 |
| 20260506161151 | 81 | 158 | 8.0 | 12.0 | 0.00 | 0.00 | 0.00 | 79 | 1014.2 |
| 20260506160104 | 81 | 158 | 7.0 | 12.0 | 0.00 | 0.00 | 0.00 | 80 | 1014.7 |
| 20260506155515 | 80 | 158 | 8.0 | 13.0 | 0.00 | 0.00 | 0.00 | 80 | 1014.7 |
| 20260506153934 | 80 | 135 | 7.0 | 11.0 | 0.00 | 0.00 | 0.00 | 81 | 1014.6 |
| 20260506152849 | 80 | 158 | 7.0 | 12.0 | 0.00 | 0.00 | 0.00 | 81 | 1014.6 |
| 20260506151802 | 80 | 0 | 6.0 | 9.0 | 0.00 | 0.00 | 0.00 | 82 | 1014.4 |
| 20260506150717 | 79 | 135 | 5.0 | 7.0 | 0.00 | 0.00 | 0.00 | 83 | 1014.4 |
| 20260506145631 | 79 | 135 | 5.0 | 10.0 | 0.00 | 0.00 | 0.00 | 84 | 1015.0 |
| 20260506144551 | 78 | 180 | 6.0 | 13.0 | 0.00 | 0.00 | 0.00 | 84 | 1015.0 |
| 20260506143500 | 78 | 113 | 5.0 | 9.0 | 0.00 | 0.00 | 0.00 | 84 | 1014.2 |
| 20260506142411 | 78 | 135 | 6.0 | 11.0 | 0.00 | 0.00 | 0.00 | 85 | 1014.2 |
| 20260506141328 | 78 | 158 | 6.0 | 7.0 | 0.00 | 0.00 | 0.00 | 85 | 1013.9 |
| 20260506140242 | 78 | 135 | 6.0 | 10.0 | 0.00 | 0.00 | 0.00 | 85 | 1013.9 |
| 20260506135156 | 77 | 135 | 5.0 | 8.0 | 0.00 | 0.00 | 0.00 | 85 | 1013.9 |
| 20260506134114 | 77 | 113 | 4.0 | 8.0 | 0.00 | 0.00 | 0.00 | 85 | 1014.0 |
| 20260506133031 | 77 | 180 | 5.0 | 9.0 | 0.00 | 0.00 | 0.00 | 85 | 1014.0 |
| 20260506131939 | 77 | 180 | 4.0 | 8.0 | 0.00 | 0.00 | 0.00 | 85 | 1013.7 |
| 20260506130855 | 77 | 135 | 4.0 | 7.0 | 0.00 | 0.00 | 0.00 | 86 | 1013.7 |
| 20260506130244 | 76 | 113 | 4.0 | 10.0 | 0.00 | 0.00 | 0.00 | 86 | 1013.7 |
| 20260506124722 | 76 | 158 | 4.0 | 9.0 | 0.00 | 0.00 | 0.00 | 86 | 1013.7 |
| 20260506123640 | 76 | 225 | 4.0 | 8.0 | 0.00 | 0.00 | 0.00 | 86 | 1013.5 |
| 20260506123512 | 76 | 158 | 4.0 | 5.0 | 0.00 | 0.00 | 0.00 | 85 | 1013.5 |
| 20260506121505 | 76 | 158 | 4.0 | 6.0 | 0.00 | 0.00 | 0.00 | 85 | 1013.2 |
| 20260506120858 | 76 | 135 | 2.0 | 4.0 | 0.00 | 0.00 | 0.00 | 85 | 1013.2 |
| 20260506115333 | 76 | 180 | 2.0 | 3.0 | 0.00 | 0.00 | 0.00 | 85 | 1013.2 |
| 20260506114246 | 76 | 158 | 3.0 | 5.0 | 0.00 | 0.00 | 0.00 | 85 | 1013.2 |
| 20260506113206 | 76 | 180 | 3.0 | 4.0 | 0.00 | 0.00 | 0.00 | 85 | 1013.1 |
| 20260506112117 | 76 | 158 | 3.0 | 4.0 | 0.00 | 0.00 | 0.00 | 85 | 1012.9 |
| 20260506111031 | 76 | 135 | 4.0 | 7.0 | 0.00 | 0.00 | 0.00 | 85 | 1012.9 |
| 20260506105940 | 76 | 135 | 4.0 | 9.0 | 0.00 | 0.00 | 0.00 | 85 | 1012.7 |
| 20260506104854 | 76 | 180 | 4.0 | 6.0 | 0.00 | 0.00 | 0.00 | 85 | 1012.7 |
| 20260506104252 | 76 | 158 | 4.0 | 5.0 | 0.00 | 0.00 | 0.00 | 85 | 1012.8 |
| 20260506102728 | 76 | 113 | 4.0 | 7.0 | 0.00 | 0.00 | 0.00 | 84 | 1012.8 |
| 20260506101636 | 76 | 180 | 4.0 | 7.0 | 0.00 | 0.00 | 0.00 | 84 | 1012.7 |
| 20260506100550 | 76 | 158 | 4.0 | 5.0 | 0.00 | 0.00 | 0.00 | 84 | 1012.7 |
| 20260506095940 | 76 | 135 | 5.0 | 10.0 | 0.00 | 0.00 | 0.00 | 84 | 1012.6 |
| 20260506094908 | 76 | 135 | 5.0 | 9.0 | 0.00 | 0.00 | 0.00 | 84 | 1012.6 |
| 20260506093336 | 76 | 180 | 5.0 | 9.0 | 0.00 | 0.00 | 0.00 | 84 | 1012.1 |
| 20260506092253 | 76 | 158 | 5.0 | 7.0 | 0.00 | 0.00 | 0.00 | 84 | 1012.1 |
| 20260506091203 | 76 | 135 | 5.0 | 7.0 | 0.00 | 0.00 | 0.00 | 84 | 1012.1 |
| 20260506090120 | 75 | 158 | 5.0 | 12.0 | 0.00 | 0.00 | 0.00 | 84 | 1012.4 |
| 20260506085034 | 75 | 135 | 4.0 | 9.0 | 0.00 | 0.00 | 0.00 | 83 | 1012.4 |
| 20260506084434 | 75 | 180 | 4.0 | 7.0 | 0.00 | 0.00 | 0.00 | 83 | 1012.5 |
| 20260506083336 | 75 | 135 | 4.0 | 7.0 | 0.00 | 0.00 | 0.00 | 83 | 1012.5 |
| 20260506081823 | 75 | 180 | 5.0 | 6.0 | 0.00 | 0.00 | 0.00 | 83 | 1012.1 |
| 20260506081209 | 75 | 203 | 4.0 | 8.0 | 0.00 | 0.00 | 0.00 | 83 | 1012.1 |
| 20260506073513 | 75 | 135 | 6.0 | 9.0 | 0.00 | 0.00 | 0.00 | 83 | 1012.5 |
| 20260506072914 | 75 | 135 | 6.0 | 9.0 | 0.00 | 0.00 | 0.00 | 82 | 1012.5 |
| 20260506071346 | 75 | 135 | 7.0 | 11.0 | 0.00 | 0.00 | 0.00 | 82 | 1012.6 |
| 20260506070256 | 75 | 135 | 6.0 | 12.0 | 0.00 | 0.00 | 0.00 | 82 | 1012.6 |
| 20260506061952 | 75 | 158 | 7.0 | 12.0 | 0.00 | 0.00 | 0.00 | 83 | 1013.1 |
| 20260506061836 | 75 | 158 | 6.0 | 11.0 | 0.00 | 0.00 | 0.00 | 83 | 1013.1 |
| 20260506050441 | 75 | 135 | 8.0 | 13.0 | 0.00 | 0.00 | 0.00 | 82 | 1013.2 |
| 20260506044304 | 75 | 158 | 8.0 | 12.0 | 0.00 | 0.00 | 0.00 | 81 | 1013.3 |
| 20260506043658 | 75 | 135 | 7.0 | 12.0 | 0.00 | 0.00 | 0.00 | 81 | 1013.3 |
| 20260506042133 | 75 | 135 | 9.0 | 15.0 | 0.00 | 0.00 | 0.00 | 81 | 1013.2 |
| 20260506041049 | 75 | 158 | 8.0 | 17.0 | 0.00 | 0.00 | 0.00 | 81 | 1013.2 |
| 20260506040007 | 75 | 113 | 7.0 | 13.0 | 0.00 | 0.00 | 0.00 | 80 | 1013.3 |
| 20260506034918 | 75 | 135 | 7.0 | 13.0 | 0.00 | 0.00 | 0.00 | 80 | 1013.3 |
| 20260506033832 | 75 | 135 | 6.0 | 13.0 | 0.00 | 0.00 | 0.00 | 80 | 1013.4 |